Time,TemperatureF,DewpointF,PressureIn,WindDirection,WindDirectionDegrees,WindSpeedMPH,WindSpeedGustMPH,Humidity,HourlyPrecipIn,Conditions,Clouds,dailyrainin,SoftwareType,DateUTC
2013-03-09 00:00:00,32.0,28.8,30.13,ENE,67,0.0,6.0,88,0.00,,,0.00,Weather View 32 v70,2013-03-09 05:00:00,
2013-03-09 00:01:00,32.0,29.1,30.12,ENE,67,0.0,6.0,89,0.00,,,0.00,Weather View 32 v70,2013-03-09 05:01:00,
2013-03-09 00:06:00,32.0,28.8,30.13,WSW,247,0.0,6.0,88,0.00,,,0.00,Weather View 32 v70,2013-03-09 05:06:00,
2013-03-09 00:11:00,32.0,28.8,30.13,ENE,67,1.0,6.0,88,0.00,,,0.00,Weather View 32 v70,2013-03-09 05:11:00,
2013-03-09 00:16:00,32.0,29.1,30.13,SE,135,2.0,6.0,89,0.00,,,0.00,Weather View 32 v70,2013-03-09 05:16:00,
2013-03-09 00:21:00,32.0,28.8,30.13,ENE,67,2.0,6.0,88,0.00,,,0.00,Weather View 32 v70,2013-03-09 05:21:00,
2013-03-09 00:26:00,32.0,28.8,30.13,NNE,22,0.0,6.0,88,0.00,,,0.00,Weather View 32 v70,2013-03-09 05:26:00,
2013-03-09 00:31:00,33.0,29.8,30.13,SE,135,0.0,6.0,88,0.00,,,0.00,Weather View 32 v70,2013-03-09 05:31:00,
2013-03-09 00:36:00,32.0,28.8,30.13,ENE,67,0.0,6.0,88,0.00,,,0.00,Weather View 32 v70,2013-03-09 05:36:00,
2013-03-09 00:41:00,32.0,28.8,30.13,SW,225,1.0,6.0,88,0.00,,,0.00,Weather View 32 v70,2013-03-09 05:41:00,
2013-03-09 00:46:00,32.0,28.8,30.13,NE,45,0.0,6.0,88,0.00,,,0.00,Weather View 32 v70,2013-03-09 05:46:00,
2013-03-09 00:51:00,32.0,28.8,30.13,ENE,67,3.0,6.0,88,0.00,,,0.00,Weather View 32 v70,2013-03-09 05:51:00,
2013-03-09 00:56:00,32.0,28.8,30.13,ENE,67,2.0,7.0,88,0.00,,,0.00,Weather View 32 v70,2013-03-09 05:56:00,
2013-03-09 01:01:00,32.0,28.8,30.13,ENE,67,1.0,7.0,88,0.00,,,0.00,Weather View 32 v70,2013-03-09 06:01:00,
2013-03-09 01:06:00,32.0,28.8,30.13,SE,135,0.0,7.0,88,0.00,,,0.00,Weather View 32 v70,2013-03-09 06:06:00,
2013-03-09 01:11:00,32.0,29.4,30.13,ENE,67,0.0,7.0,90,0.00,,,0.00,Weather View 32 v70,2013-03-09 06:11:00,
2013-03-09 01:16:00,32.0,29.1,30.13,ENE,67,1.0,7.0,89,0.00,,,0.00,Weather View 32 v70,2013-03-09 06:16:00,
2013-03-09 01:21:00,32.0,29.1,30.13,ENE,67,0.0,7.0,89,0.00,,,0.00,Weather View 32 v70,2013-03-09 06:21:00,
2013-03-09 01:26:00,32.0,29.1,30.13,ENE,67,0.0,7.0,89,0.00,,,0.00,Weather View 32 v70,2013-03-09 06:26:00,
2013-03-09 01:31:00,32.0,29.1,30.13,WSW,247,0.0,7.0,89,0.00,,,0.00,Weather View 32 v70,2013-03-09 06:31:00,
2013-03-09 01:36:00,31.0,28.1,30.13,ENE,67,1.0,7.0,89,0.00,,,0.00,Weather View 32 v70,2013-03-09 06:36:00,
2013-03-09 01:41:00,32.0,29.1,30.13,ENE,67,0.0,7.0,89,0.00,,,0.00,Weather View 32 v70,2013-03-09 06:41:00,
2013-03-09 01:46:00,31.0,28.4,30.13,ENE,67,0.0,7.0,90,0.00,,,0.00,Weather View 32 v70,2013-03-09 06:46:00,
2013-03-09 01:51:00,31.0,28.4,30.13,ENE,67,0.0,7.0,90,0.00,,,0.00,Weather View 32 v70,2013-03-09 06:51:00,
2013-03-09 01:56:00,31.0,28.4,30.13,ENE,67,0.0,6.0,90,0.00,,,0.00,Weather View 32 v70,2013-03-09 06:56:00,
2013-03-09 02:01:00,31.0,28.4,30.13,ENE,67,0.0,6.0,90,0.00,,,0.00,Weather View 32 v70,2013-03-09 07:01:00,
2013-03-09 02:06:00,30.0,27.4,30.13,ENE,67,0.0,6.0,90,0.00,,,0.00,Weather View 32 v70,2013-03-09 07:06:00,
2013-03-09 02:11:00,30.0,27.4,30.13,ENE,67,0.0,6.0,90,0.00,,,0.00,Weather View 32 v70,2013-03-09 07:11:00,
2013-03-09 02:16:00,29.0,26.7,30.13,ENE,67,0.0,5.0,91,0.00,,,0.00,Weather View 32 v70,2013-03-09 07:16:00,
2013-03-09 02:21:00,28.0,26.0,30.12,ENE,67,0.0,5.0,92,0.00,,,0.00,Weather View 32 v70,2013-03-09 07:21:00,
2013-03-09 02:26:00,27.0,25.0,30.12,ENE,67,0.0,5.0,92,0.00,,,0.00,Weather View 32 v70,2013-03-09 07:26:00,
2013-03-09 02:31:00,27.0,25.0,30.12,ENE,67,0.0,5.0,92,0.00,,,0.00,Weather View 32 v70,2013-03-09 07:31:00,
2013-03-09 02:36:00,26.0,24.3,30.12,ENE,67,0.0,5.0,93,0.00,,,0.00,Weather View 32 v70,2013-03-09 07:36:00,
2013-03-09 02:41:00,26.0,24.5,30.12,ENE,67,0.0,5.0,94,0.00,,,0.00,Weather View 32 v70,2013-03-09 07:41:00,
2013-03-09 02:46:00,25.0,23.3,30.12,ENE,67,0.0,5.0,93,0.00,,,0.00,Weather View 32 v70,2013-03-09 07:46:00,
2013-03-09 02:51:00,24.0,22.3,30.12,ENE,67,0.0,5.0,93,0.00,,,0.00,Weather View 32 v70,2013-03-09 07:51:00,
2013-03-09 02:56:00,24.0,21.8,30.12,ENE,67,0.0,5.0,91,0.00,,,0.00,Weather View 32 v70,2013-03-09 07:56:00,
2013-03-09 03:01:00,23.0,21.3,30.12,ENE,67,0.0,5.0,93,0.00,,,0.00,Weather View 32 v70,2013-03-09 08:01:00,
2013-03-09 03:06:00,23.0,20.8,30.12,ENE,67,0.0,5.0,91,0.00,,,0.00,Weather View 32 v70,2013-03-09 08:06:00,
2013-03-09 03:11:00,23.0,20.8,30.12,ENE,67,0.0,0.0,91,0.00,,,0.00,Weather View 32 v70,2013-03-09 08:11:00,
2013-03-09 03:16:00,22.0,19.5,30.11,ENE,67,0.0,0.0,90,0.00,,,0.00,Weather View 32 v70,2013-03-09 08:16:00,
2013-03-09 03:21:00,22.0,18.7,30.11,ENE,67,0.0,0.0,87,0.00,,,0.00,Weather View 32 v70,2013-03-09 08:21:00,
2013-03-09 03:26:00,22.0,18.2,30.11,ENE,67,0.0,0.0,85,0.00,,,0.00,Weather View 32 v70,2013-03-09 08:26:00,
2013-03-09 03:31:00,22.0,18.2,30.11,ENE,67,0.0,0.0,85,0.00,,,0.00,Weather View 32 v70,2013-03-09 08:31:00,
2013-03-09 03:36:00,21.0,16.7,30.12,ENE,67,0.0,0.0,83,0.00,,,0.00,Weather View 32 v70,2013-03-09 08:36:00,
2013-03-09 03:41:00,21.0,17.2,30.12,ENE,67,0.0,0.0,85,0.00,,,0.00,Weather View 32 v70,2013-03-09 08:41:00,
2013-03-09 03:46:00,21.0,17.2,30.13,ENE,67,0.0,0.0,85,0.00,,,0.00,Weather View 32 v70,2013-03-09 08:46:00,
2013-03-09 03:51:00,20.0,16.2,30.13,ENE,67,0.0,0.0,85,0.00,,,0.00,Weather View 32 v70,2013-03-09 08:51:00,
2013-03-09 03:56:00,20.0,15.7,30.13,ENE,67,0.0,0.0,83,0.00,,,0.00,Weather View 32 v70,2013-03-09 08:56:00,
2013-03-09 04:01:00,20.0,15.4,30.13,ENE,67,0.0,0.0,82,0.00,,,0.00,Weather View 32 v70,2013-03-09 09:01:00,
2013-03-09 04:06:00,20.0,14.8,30.13,ENE,67,0.0,1.0,80,0.00,,,0.00,Weather View 32 v70,2013-03-09 09:06:00,
2013-03-09 04:11:00,20.0,14.8,30.13,ENE,67,0.0,1.0,80,0.00,,,0.00,Weather View 32 v70,2013-03-09 09:11:00,
2013-03-09 04:16:00,20.0,14.2,30.13,ENE,67,0.0,1.0,78,0.00,,,0.00,Weather View 32 v70,2013-03-09 09:16:00,
2013-03-09 04:21:00,20.0,14.2,30.13,ENE,67,0.0,1.0,78,0.00,,,0.00,Weather View 32 v70,2013-03-09 09:21:00,
2013-03-09 04:26:00,20.0,11.8,30.14,ENE,67,0.0,3.0,70,0.00,,,0.00,Weather View 32 v70,2013-03-09 09:26:00,
2013-03-09 04:31:00,21.0,12.1,30.13,ENE,67,0.0,3.0,68,0.00,,,0.00,Weather View 32 v70,2013-03-09 09:31:00,
2013-03-09 04:36:00,22.0,13.1,30.14,ENE,67,0.0,3.0,68,0.00,,,0.00,Weather View 32 v70,2013-03-09 09:36:00,
2013-03-09 04:41:00,24.0,17.5,30.14,ENE,67,1.0,3.0,76,0.00,,,0.00,Weather View 32 v70,2013-03-09 09:41:00,
2013-03-09 04:46:00,25.0,22.5,30.14,East,90,0.0,6.0,90,0.00,,,0.00,Weather View 32 v70,2013-03-09 09:46:00,
2013-03-09 04:51:00,26.0,23.7,30.14,ENE,67,3.0,6.0,91,0.00,,,0.00,Weather View 32 v70,2013-03-09 09:51:00,
2013-03-09 04:56:00,27.0,24.7,30.14,ENE,67,0.0,6.0,91,0.00,,,0.00,Weather View 32 v70,2013-03-09 09:56:00,
2013-03-09 05:01:00,28.0,26.0,30.14,ENE,67,4.0,6.0,92,0.00,,,0.00,Weather View 32 v70,2013-03-09 10:01:00,
2013-03-09 05:06:00,28.0,26.0,30.14,NNE,22,1.0,6.0,92,0.00,,,0.00,Weather View 32 v70,2013-03-09 10:06:00,
2013-03-09 05:11:00,28.0,26.0,30.15,ENE,67,1.0,6.0,92,0.00,,,0.00,Weather View 32 v70,2013-03-09 10:11:00,
2013-03-09 05:16:00,29.0,27.0,30.15,NE,45,0.0,6.0,92,0.00,,,0.00,Weather View 32 v70,2013-03-09 10:16:00,
2013-03-09 05:21:00,29.0,27.0,30.15,South,180,0.0,6.0,92,0.00,,,0.00,Weather View 32 v70,2013-03-09 10:21:00,
2013-03-09 05:26:00,29.0,27.0,30.15,NE,45,1.0,6.0,92,0.00,,,0.00,Weather View 32 v70,2013-03-09 10:26:00,
2013-03-09 05:31:00,29.0,27.0,30.15,ENE,67,6.0,6.0,92,0.00,,,0.00,Weather View 32 v70,2013-03-09 10:31:00,
2013-03-09 05:36:00,29.0,27.0,30.15,East,90,0.0,6.0,92,0.00,,,0.00,Weather View 32 v70,2013-03-09 10:36:00,
2013-03-09 05:41:00,29.0,27.0,30.15,NE,45,0.0,6.0,92,0.00,,,0.00,Weather View 32 v70,2013-03-09 10:41:00,
2013-03-09 05:46:00,28.0,26.0,30.15,NE,45,0.0,6.0,92,0.00,,,0.00,Weather View 32 v70,2013-03-09 10:46:00,
2013-03-09 05:51:00,27.0,25.2,30.16,NE,45,0.0,6.0,93,0.00,,,0.00,Weather View 32 v70,2013-03-09 10:51:00,
2013-03-09 05:56:00,27.0,25.2,30.16,ENE,67,0.0,6.0,93,0.00,,,0.00,Weather View 32 v70,2013-03-09 10:56:00,
2013-03-09 06:01:00,26.0,24.3,30.16,ENE,67,0.0,6.0,93,0.00,,,0.00,Weather View 32 v70,2013-03-09 11:01:00,
2013-03-09 06:06:00,26.0,24.5,30.17,ENE,67,0.0,6.0,94,0.00,,,0.00,Weather View 32 v70,2013-03-09 11:06:00,
2013-03-09 06:11:00,25.0,23.5,30.17,East,90,1.0,6.0,94,0.00,,,0.00,Weather View 32 v70,2013-03-09 11:11:00,
2013-03-09 06:16:00,25.0,23.5,30.17,East,90,0.0,6.0,94,0.00,,,0.00,Weather View 32 v70,2013-03-09 11:16:00,
2013-03-09 06:21:00,25.0,23.5,30.17,East,90,0.0,6.0,94,0.00,,,0.00,Weather View 32 v70,2013-03-09 11:21:00,
2013-03-09 06:26:00,25.0,23.8,30.17,East,90,0.0,6.0,95,0.00,,,0.00,Weather View 32 v70,2013-03-09 11:26:00,
2013-03-09 06:31:00,24.0,22.8,30.17,East,90,0.0,6.0,95,0.00,,,0.00,Weather View 32 v70,2013-03-09 11:31:00,
2013-03-09 06:36:00,24.0,22.5,30.17,ENE,67,0.0,2.0,94,0.00,,,0.00,Weather View 32 v70,2013-03-09 11:36:00,
2013-03-09 06:41:00,24.0,22.5,30.18,NNE,22,0.0,3.0,94,0.00,,,0.00,Weather View 32 v70,2013-03-09 11:41:00,
2013-03-09 06:46:00,25.0,23.5,30.18,ENE,67,0.0,4.0,94,0.00,,,0.00,Weather View 32 v70,2013-03-09 11:46:00,
2013-03-09 06:51:00,26.0,24.5,30.19,NW,315,2.0,4.0,94,0.00,,,0.00,Weather View 32 v70,2013-03-09 11:51:00,
2013-03-09 06:56:00,26.0,24.3,30.18,NNW,337,0.0,4.0,93,0.00,,,0.00,Weather View 32 v70,2013-03-09 11:56:00,
2013-03-09 07:02:00,27.0,25.2,30.19,ENE,67,0.0,5.0,93,0.00,,,0.00,Weather View 32 v70,2013-03-09 12:02:00,
2013-03-09 07:07:00,28.0,26.2,30.19,ENE,67,0.0,5.0,93,0.00,,,0.00,Weather View 32 v70,2013-03-09 12:07:00,
2013-03-09 07:12:00,29.0,27.2,30.20,ENE,67,6.0,6.0,93,0.00,,,0.00,Weather View 32 v70,2013-03-09 12:12:00,
2013-03-09 07:17:00,31.0,28.7,30.21,ENE,67,4.0,6.0,91,0.00,,,0.00,Weather View 32 v70,2013-03-09 12:17:00,
2013-03-09 07:22:00,32.0,28.8,30.21,West,270,1.0,7.0,88,0.00,,,0.00,Weather View 32 v70,2013-03-09 12:22:00,
2013-03-09 07:27:00,33.0,28.1,30.21,ENE,67,4.0,7.0,82,0.00,,,0.00,Weather View 32 v70,2013-03-09 12:27:00,
2013-03-09 07:32:00,34.0,28.8,30.22,ENE,67,6.0,9.0,81,0.00,,,0.00,Weather View 32 v70,2013-03-09 12:32:00,
2013-03-09 07:37:00,35.0,28.5,30.22,ENE,67,6.0,9.0,77,0.00,,,0.00,Weather View 32 v70,2013-03-09 12:37:00,
2013-03-09 07:42:00,35.0,28.5,30.23,ENE,67,4.0,9.0,77,0.00,,,0.00,Weather View 32 v70,2013-03-09 12:42:00,
2013-03-09 07:47:00,36.0,28.5,30.23,ENE,67,1.0,9.0,74,0.00,,,0.00,Weather View 32 v70,2013-03-09 12:47:00,
2013-03-09 07:52:00,36.0,27.8,30.23,NE,45,8.0,9.0,72,0.00,,,0.00,Weather View 32 v70,2013-03-09 12:52:00,
2013-03-09 07:57:00,36.0,27.8,30.23,ENE,67,3.0,9.0,72,0.00,,,0.00,Weather View 32 v70,2013-03-09 12:57:00,
2013-03-09 08:02:00,37.0,28.1,30.23,NE,45,7.0,9.0,70,0.01,,,0.01,Weather View 32 v70,2013-03-09 13:02:00,
2013-03-09 08:07:00,37.0,29.8,30.23,ESE,112,1.0,10.0,75,0.01,,,0.01,Weather View 32 v70,2013-03-09 13:07:00,
2013-03-09 08:12:00,37.0,28.1,30.23,ENE,67,2.0,10.0,70,0.01,,,0.01,Weather View 32 v70,2013-03-09 13:12:00,
2013-03-09 08:17:00,37.0,26.3,30.23,ENE,67,6.0,10.0,65,0.01,,,0.01,Weather View 32 v70,2013-03-09 13:17:00,
2013-03-09 08:22:00,37.0,26.7,30.24,NE,45,6.0,10.0,66,0.02,,,0.02,Weather View 32 v70,2013-03-09 13:22:00,
2013-03-09 08:27:00,38.0,27.6,30.24,ENE,67,3.0,10.0,66,0.03,,,0.03,Weather View 32 v70,2013-03-09 13:27:00,
2013-03-09 08:32:00,38.0,24.9,30.24,ENE,67,6.0,10.0,59,0.03,,,0.03,Weather View 32 v70,2013-03-09 13:32:00,
2013-03-09 08:37:00,38.0,25.3,30.24,ENE,67,3.0,10.0,60,0.04,,,0.04,Weather View 32 v70,2013-03-09 13:37:00,
2013-03-09 08:42:00,38.0,24.1,30.24,ENE,67,8.0,10.0,57,0.04,,,0.04,Weather View 32 v70,2013-03-09 13:42:00,
2013-03-09 08:47:00,38.0,24.5,30.24,ENE,67,7.0,10.0,58,0.05,,,0.05,Weather View 32 v70,2013-03-09 13:47:00,
2013-03-09 08:52:00,39.0,24.2,30.24,NE,45,5.0,10.0,55,0.05,,,0.05,Weather View 32 v70,2013-03-09 13:52:00,
2013-03-09 08:57:00,39.0,24.2,30.25,ENE,67,6.0,10.0,55,0.06,,,0.06,Weather View 32 v70,2013-03-09 13:57:00,
2013-03-09 09:02:00,39.0,24.2,30.25,NNE,22,0.0,10.0,55,0.05,,,0.06,Weather View 32 v70,2013-03-09 14:02:00,
2013-03-09 09:07:00,40.0,23.8,30.25,ENE,67,7.0,10.0,52,0.06,,,0.07,Weather View 32 v70,2013-03-09 14:07:00,
2013-03-09 09:12:00,40.0,24.7,30.25,East,90,2.0,12.0,54,0.07,,,0.08,Weather View 32 v70,2013-03-09 14:12:00,
2013-03-09 09:17:00,40.0,23.8,30.25,NE,45,6.0,12.0,52,0.07,,,0.08,Weather View 32 v70,2013-03-09 14:17:00,
2013-03-09 09:22:00,40.0,23.3,30.25,NE,45,2.0,12.0,51,0.07,,,0.09,Weather View 32 v70,2013-03-09 14:22:00,
2013-03-09 09:27:00,41.0,24.2,30.25,ENE,67,6.0,12.0,51,0.06,,,0.09,Weather View 32 v70,2013-03-09 14:27:00,
2013-03-09 09:33:00,41.0,23.3,30.25,ENE,67,6.0,12.0,49,0.07,,,0.10,Weather View 32 v70,2013-03-09 14:33:00,
2013-03-09 09:38:00,41.0,24.2,30.25,NE,45,5.0,13.0,51,0.07,,,0.11,Weather View 32 v70,2013-03-09 14:38:00,
2013-03-09 09:43:00,41.0,24.2,30.25,ENE,67,7.0,13.0,51,0.08,,,0.12,Weather View 32 v70,2013-03-09 14:43:00,
2013-03-09 09:48:00,41.0,22.8,30.25,NE,45,5.0,13.0,48,0.07,,,0.12,Weather View 32 v70,2013-03-09 14:48:00,
2013-03-09 09:53:00,42.0,24.2,30.25,NE,45,6.0,13.0,49,0.08,,,0.13,Weather View 32 v70,2013-03-09 14:53:00,
2013-03-09 09:58:00,42.0,24.7,30.26,NE,45,7.0,13.0,50,0.08,,,0.14,Weather View 32 v70,2013-03-09 14:58:00,
2013-03-09 10:03:00,42.0,23.7,30.25,NE,45,8.0,13.0,48,0.09,,,0.15,Weather View 32 v70,2013-03-09 15:03:00,
2013-03-09 10:08:00,42.0,23.7,30.25,NE,45,6.0,13.0,48,0.09,,,0.16,Weather View 32 v70,2013-03-09 15:08:00,
2013-03-09 10:13:00,42.0,24.2,30.26,ENE,67,4.0,13.0,49,0.08,,,0.16,Weather View 32 v70,2013-03-09 15:13:00,
2013-03-09 10:18:00,42.0,23.2,30.25,NE,45,6.0,13.0,47,0.09,,,0.17,Weather View 32 v70,2013-03-09 15:18:00,
2013-03-09 10:23:00,43.0,24.1,30.25,South,180,1.0,13.0,47,0.09,,,0.18,Weather View 32 v70,2013-03-09 15:23:00,
2013-03-09 10:28:00,43.0,25.1,30.26,NE,45,2.0,13.0,49,0.10,,,0.19,Weather View 32 v70,2013-03-09 15:28:00,
2013-03-09 10:33:00,44.0,24.0,30.26,North,360,1.0,13.0,45,0.10,,,0.20,Weather View 32 v70,2013-03-09 15:33:00,
2013-03-09 10:38:00,44.0,25.0,30.26,ESE,112,1.0,11.0,47,0.10,,,0.21,Weather View 32 v70,2013-03-09 15:38:00,
2013-03-09 10:43:00,44.0,24.0,30.26,ENE,67,5.0,11.0,45,0.10,,,0.22,Weather View 32 v70,2013-03-09 15:43:00,
2013-03-09 10:48:00,44.0,24.0,30.26,NE,45,5.0,11.0,45,0.10,,,0.22,Weather View 32 v70,2013-03-09 15:48:00,
2013-03-09 10:53:00,44.0,25.0,30.26,ENE,67,6.0,11.0,47,0.10,,,0.23,Weather View 32 v70,2013-03-09 15:53:00,
2013-03-09 10:58:00,45.0,24.9,30.26,ENE,67,3.0,11.0,45,0.10,,,0.24,Weather View 32 v70,2013-03-09 15:58:00,
2013-03-09 11:03:00,44.0,22.3,30.26,WSW,247,6.0,11.0,42,0.10,,,0.25,Weather View 32 v70,2013-03-09 16:03:00,
2013-03-09 11:08:00,45.0,23.3,30.26,NE,45,10.0,11.0,42,0.10,,,0.26,Weather View 32 v70,2013-03-09 16:08:00,
2013-03-09 11:13:00,44.0,22.9,30.26,NE,45,5.0,11.0,43,0.10,,,0.26,Weather View 32 v70,2013-03-09 16:13:00,
2013-03-09 11:18:00,45.0,25.4,30.27,NE,45,9.0,11.0,46,0.10,,,0.27,Weather View 32 v70,2013-03-09 16:18:00,
2013-03-09 11:23:00,45.0,23.8,30.27,NE,45,6.0,11.0,43,0.10,,,0.28,Weather View 32 v70,2013-03-09 16:23:00,
2013-03-09 11:28:00,46.0,23.0,30.27,ENE,67,2.0,11.0,40,0.09,,,0.29,Weather View 32 v70,2013-03-09 16:28:00,
2013-03-09 11:33:00,46.0,24.2,30.27,East,90,0.0,11.0,42,0.09,,,0.29,Weather View 32 v70,2013-03-09 16:33:00,
2013-03-09 11:38:00,46.0,23.0,30.27,West,270,2.0,11.0,40,0.09,,,0.30,Weather View 32 v70,2013-03-09 16:38:00,
2013-03-09 11:43:00,47.0,23.9,30.27,NE,45,4.0,11.0,40,0.09,,,0.31,Weather View 32 v70,2013-03-09 16:43:00,
2013-03-09 11:48:00,47.0,23.9,30.27,NE,45,9.0,11.0,40,0.10,,,0.32,Weather View 32 v70,2013-03-09 16:48:00,
2013-03-09 11:53:00,47.0,23.3,30.27,NE,45,0.0,11.0,39,0.10,,,0.33,Weather View 32 v70,2013-03-09 16:53:00,
2013-03-09 11:58:00,47.0,24.5,30.27,SE,135,6.0,11.0,41,0.10,,,0.34,Weather View 32 v70,2013-03-09 16:58:00,
2013-03-09 12:03:00,47.0,23.9,30.28,NE,45,7.0,11.0,40,0.09,,,0.34,Weather View 32 v70,2013-03-09 17:03:00,
2013-03-09 12:08:00,47.0,21.4,30.28,ESE,112,3.0,10.0,36,0.09,,,0.35,Weather View 32 v70,2013-03-09 17:08:00,
2013-03-09 12:13:00,47.0,22.7,30.27,ENE,67,4.0,10.0,38,0.10,,,0.36,Weather View 32 v70,2013-03-09 17:13:00,
2013-03-09 12:18:00,47.0,23.9,30.27,NE,45,4.0,10.0,40,0.09,,,0.37,Weather View 32 v70,2013-03-09 17:18:00,
2013-03-09 12:23:00,47.0,23.3,30.27,NE,45,1.0,10.0,39,0.09,,,0.37,Weather View 32 v70,2013-03-09 17:23:00,
2013-03-09 12:28:00,48.0,23.6,30.27,NE,45,4.0,10.0,38,0.10,,,0.38,Weather View 32 v70,2013-03-09 17:28:00,
2013-03-09 12:34:00,49.0,23.8,30.27,NE,45,6.0,10.0,37,0.10,,,0.39,Weather View 32 v70,2013-03-09 17:34:00,
2013-03-09 12:39:00,49.0,25.1,30.27,SE,135,2.0,10.0,39,0.10,,,0.40,Weather View 32 v70,2013-03-09 17:39:00,
2013-03-09 12:44:00,50.0,24.7,30.27,SSW,202,0.0,10.0,37,0.10,,,0.41,Weather View 32 v70,2013-03-09 17:44:00,
2013-03-09 12:49:00,49.0,24.5,30.27,ENE,67,4.0,10.0,38,0.10,,,0.42,Weather View 32 v70,2013-03-09 17:49:00,
2013-03-09 12:54:00,49.0,23.8,30.27,ENE,67,3.0,10.0,37,0.10,,,0.43,Weather View 32 v70,2013-03-09 17:54:00,
2013-03-09 12:59:00,49.0,24.5,30.27,SW,225,0.0,10.0,38,0.10,,,0.44,Weather View 32 v70,2013-03-09 17:59:00,
2013-03-09 13:04:00,50.0,26.0,30.27,SSE,157,1.0,10.0,39,0.10,,,0.45,Weather View 32 v70,2013-03-09 18:04:00,
2013-03-09 13:09:00,50.0,23.4,30.27,ENE,67,3.0,10.0,35,0.10,,,0.45,Weather View 32 v70,2013-03-09 18:09:00,
2013-03-09 13:14:00,49.0,23.8,30.27,ESE,112,1.0,10.0,37,0.10,,,0.46,Weather View 32 v70,2013-03-09 18:14:00,
2013-03-09 13:19:00,50.0,24.7,30.27,SE,135,1.0,10.0,37,0.10,,,0.47,Weather View 32 v70,2013-03-09 18:19:00,
2013-03-09 13:24:00,51.0,24.3,30.27,East,90,1.0,10.0,35,0.11,,,0.48,Weather View 32 v70,2013-03-09 18:24:00,
2013-03-09 13:29:00,50.0,23.4,30.27,ENE,67,1.0,9.0,35,0.10,,,0.48,Weather View 32 v70,2013-03-09 18:29:00,
2013-03-09 13:34:00,50.0,23.4,30.27,ENE,67,3.0,9.0,35,0.10,,,0.49,Weather View 32 v70,2013-03-09 18:34:00,
2013-03-09 13:39:00,50.0,24.0,30.27,ENE,67,3.0,9.0,36,0.10,,,0.50,Weather View 32 v70,2013-03-09 18:39:00,
2013-03-09 13:44:00,50.0,22.7,30.27,ENE,67,3.0,9.0,34,0.09,,,0.50,Weather View 32 v70,2013-03-09 18:44:00,
2013-03-09 13:49:00,51.0,23.6,30.27,WSW,247,1.0,9.0,34,0.09,,,0.51,Weather View 32 v70,2013-03-09 18:49:00,
2013-03-09 13:54:00,52.0,27.1,30.27,ESE,112,4.0,9.0,38,0.08,,,0.51,Weather View 32 v70,2013-03-09 18:54:00,
2013-03-09 13:59:00,51.0,24.3,30.27,NE,45,2.0,9.0,35,0.08,,,0.52,Weather View 32 v70,2013-03-09 18:59:00,
2013-03-09 14:04:00,52.0,27.8,30.27,ENE,67,4.0,9.0,39,0.08,,,0.52,Weather View 32 v70,2013-03-09 19:04:00,
2013-03-09 14:09:00,52.0,25.8,30.27,NNE,22,2.0,9.0,36,0.07,,,0.52,Weather View 32 v70,2013-03-09 19:09:00,
2013-03-09 14:14:00,51.0,24.9,30.27,NE,45,4.0,9.0,36,0.07,,,0.53,Weather View 32 v70,2013-03-09 19:14:00,
2013-03-09 14:19:00,51.0,25.6,30.27,ESE,112,2.0,9.0,37,0.06,,,0.53,Weather View 32 v70,2013-03-09 19:19:00,
2013-03-09 14:24:00,51.0,24.3,30.26,NNE,22,2.0,9.0,35,0.05,,,0.53,Weather View 32 v70,2013-03-09 19:24:00,
2013-03-09 14:29:00,50.0,24.0,30.26,ESE,112,2.0,9.0,36,0.05,,,0.53,Weather View 32 v70,2013-03-09 19:29:00,
2013-03-09 14:34:00,50.0,23.4,30.26,SE,135,1.0,9.0,35,0.04,,,0.53,Weather View 32 v70,2013-03-09 19:34:00,
2013-03-09 14:39:00,50.0,23.4,30.26,ENE,67,5.0,8.0,35,0.03,,,0.53,Weather View 32 v70,2013-03-09 19:39:00,
2013-03-09 14:44:00,50.0,26.6,30.26,ESE,112,1.0,8.0,40,0.03,,,0.53,Weather View 32 v70,2013-03-09 19:44:00,
2013-03-09 14:49:00,50.0,26.6,30.26,SSE,157,1.0,8.0,40,0.03,,,0.54,Weather View 32 v70,2013-03-09 19:49:00,
2013-03-09 14:54:00,50.0,27.2,30.26,East,90,1.0,8.0,41,0.03,,,0.54,Weather View 32 v70,2013-03-09 19:54:00,
2013-03-09 14:59:00,50.0,29.5,30.26,ENE,67,3.0,8.0,45,0.02,,,0.54,Weather View 32 v70,2013-03-09 19:59:00,
2013-03-09 15:05:00,50.0,27.8,30.26,East,90,0.0,8.0,42,0.02,,,0.54,Weather View 32 v70,2013-03-09 20:05:00,
2013-03-09 15:10:00,49.0,27.4,30.26,ENE,67,0.0,8.0,43,0.02,,,0.54,Weather View 32 v70,2013-03-09 20:10:00,
2013-03-09 15:15:00,50.0,29.5,30.26,ESE,112,4.0,8.0,45,0.01,,,0.54,Weather View 32 v70,2013-03-09 20:15:00,
2013-03-09 15:20:00,49.0,27.4,30.26,ENE,67,3.0,10.0,43,0.01,,,0.54,Weather View 32 v70,2013-03-09 20:20:00,
2013-03-09 15:25:00,49.0,29.1,30.26,ENE,67,0.0,10.0,46,0.01,,,0.54,Weather View 32 v70,2013-03-09 20:25:00,
2013-03-09 15:30:00,49.0,29.6,30.26,East,90,3.0,10.0,47,0.01,,,0.54,Weather View 32 v70,2013-03-09 20:30:00,
2013-03-09 15:35:00,49.0,31.1,30.26,East,90,2.0,10.0,50,0.01,,,0.54,Weather View 32 v70,2013-03-09 20:35:00,
2013-03-09 15:40:00,49.0,32.6,30.26,South,180,1.0,10.0,53,0.01,,,0.54,Weather View 32 v70,2013-03-09 20:40:00,
2013-03-09 15:45:00,48.0,31.7,30.26,SSW,202,1.0,10.0,53,0.01,,,0.54,Weather View 32 v70,2013-03-09 20:45:00,
2013-03-09 15:50:00,48.0,33.0,30.27,ENE,67,4.0,10.0,56,0.00,,,0.54,Weather View 32 v70,2013-03-09 20:50:00,
2013-03-09 15:55:00,47.0,32.1,30.27,West,270,0.0,10.0,56,0.00,,,0.54,Weather View 32 v70,2013-03-09 20:55:00,
2013-03-09 16:00:00,46.0,31.2,30.27,ENE,67,0.0,10.0,56,0.00,,,0.54,Weather View 32 v70,2013-03-09 21:00:00,
2013-03-09 16:05:00,46.0,32.0,30.27,West,270,1.0,10.0,58,0.00,,,0.54,Weather View 32 v70,2013-03-09 21:05:00,
2013-03-09 16:10:00,45.0,32.3,30.27,SE,135,0.0,10.0,61,0.00,,,0.54,Weather View 32 v70,2013-03-09 21:10:00,
2013-03-09 16:15:00,44.0,33.4,30.27,ESE,112,4.0,10.0,66,0.00,,,0.54,Weather View 32 v70,2013-03-09 21:15:00,
2013-03-09 16:20:00,43.0,34.6,30.27,East,90,2.0,9.0,72,0.00,,,0.54,Weather View 32 v70,2013-03-09 21:20:00,
2013-03-09 16:25:00,42.0,34.6,30.27,WNW,292,0.0,7.0,75,0.00,,,0.54,Weather View 32 v70,2013-03-09 21:25:00,
2013-03-09 16:30:00,42.0,35.3,30.27,East,90,3.0,7.0,77,0.00,,,0.54,Weather View 32 v70,2013-03-09 21:30:00,
2013-03-09 16:35:00,41.0,34.7,30.27,SSE,157,0.0,7.0,78,0.00,,,0.54,Weather View 32 v70,2013-03-09 21:35:00,
2013-03-09 16:40:00,41.0,35.3,30.27,SSE,157,0.0,7.0,80,0.00,,,0.54,Weather View 32 v70,2013-03-09 21:40:00,
2013-03-09 16:45:00,40.0,36.1,30.27,ESE,112,5.0,7.0,86,0.00,,,0.54,Weather View 32 v70,2013-03-09 21:45:00,
2013-03-09 16:50:00,40.0,36.7,30.27,NE,45,1.0,7.0,88,0.00,,,0.54,Weather View 32 v70,2013-03-09 21:50:00,
2013-03-09 16:55:00,40.0,37.9,30.27,ENE,67,1.0,7.0,92,0.00,,,0.54,Weather View 32 v70,2013-03-09 21:55:00,
2013-03-09 17:00:00,39.0,36.9,30.27,South,180,0.0,6.0,92,0.00,,,0.54,Weather View 32 v70,2013-03-09 22:00:00,
2013-03-09 17:05:00,39.0,36.0,30.27,ESE,112,2.0,6.0,89,0.00,,,0.54,Weather View 32 v70,2013-03-09 22:05:00,
2013-03-09 17:10:00,38.0,34.8,30.27,SW,225,0.0,6.0,88,0.00,,,0.54,Weather View 32 v70,2013-03-09 22:10:00,
2013-03-09 17:15:00,38.0,33.6,30.27,SW,225,1.0,6.0,84,0.00,,,0.54,Weather View 32 v70,2013-03-09 22:15:00,
2013-03-09 17:20:00,38.0,33.9,30.28,SSE,157,0.0,6.0,85,0.00,,,0.54,Weather View 32 v70,2013-03-09 22:20:00,
2013-03-09 17:25:00,37.0,33.2,30.28,North,360,4.0,6.0,86,0.00,,,0.54,Weather View 32 v70,2013-03-09 22:25:00,
2013-03-09 17:30:00,37.0,32.3,30.28,ESE,112,1.0,6.0,83,0.00,,,0.54,Weather View 32 v70,2013-03-09 22:30:00,
2013-03-09 17:35:00,37.0,32.9,30.28,SE,135,0.0,6.0,85,0.00,,,0.54,Weather View 32 v70,2013-03-09 22:35:00,
2013-03-09 17:40:00,36.0,31.9,30.29,SE,135,0.0,6.0,85,0.00,,,0.54,Weather View 32 v70,2013-03-09 22:40:00,
2013-03-09 17:45:00,36.0,31.3,30.29,SE,135,0.0,6.0,83,0.00,,,0.54,Weather View 32 v70,2013-03-09 22:45:00,
2013-03-09 17:50:00,35.0,30.1,30.29,SE,135,0.0,5.0,82,0.00,,,0.54,Weather View 32 v70,2013-03-09 22:50:00,
2013-03-09 17:55:00,35.0,30.1,30.29,WSW,247,0.0,5.0,82,0.00,,,0.54,Weather View 32 v70,2013-03-09 22:55:00,
2013-03-09 18:01:00,35.0,29.5,30.29,WSW,247,0.0,5.0,80,0.00,,,0.54,Weather View 32 v70,2013-03-09 23:01:00,
2013-03-09 18:06:00,34.0,29.1,30.29,SSE,157,0.0,5.0,82,0.00,,,0.54,Weather View 32 v70,2013-03-09 23:06:00,
2013-03-09 18:11:00,34.0,28.2,30.29,SSE,157,0.0,5.0,79,0.00,,,0.54,Weather View 32 v70,2013-03-09 23:11:00,
2013-03-09 18:16:00,34.0,28.2,30.29,SE,135,0.0,5.0,79,0.00,,,0.54,Weather View 32 v70,2013-03-09 23:16:00,
2013-03-09 18:21:00,33.0,26.9,30.29,SE,135,0.0,5.0,78,0.00,,,0.54,Weather View 32 v70,2013-03-09 23:21:00,
2013-03-09 18:26:00,33.0,26.6,30.29,SE,135,0.0,5.0,77,0.00,,,0.54,Weather View 32 v70,2013-03-09 23:26:00,
2013-03-09 18:31:00,33.0,26.3,30.29,SE,135,0.0,4.0,76,0.00,,,0.54,Weather View 32 v70,2013-03-09 23:31:00,
2013-03-09 18:36:00,33.0,25.6,30.29,SE,135,0.0,4.0,74,0.00,,,0.54,Weather View 32 v70,2013-03-09 23:36:00,
2013-03-09 18:41:00,32.0,24.0,30.29,SE,135,0.0,4.0,72,0.00,,,0.54,Weather View 32 v70,2013-03-09 23:41:00,
2013-03-09 18:46:00,32.0,24.6,30.29,SE,135,0.0,4.0,74,0.00,,,0.54,Weather View 32 v70,2013-03-09 23:46:00,
2013-03-09 18:51:00,32.0,24.3,30.29,SE,135,0.0,4.0,73,0.00,,,0.54,Weather View 32 v70,2013-03-09 23:51:00,
2013-03-09 18:56:00,32.0,23.3,30.29,SE,135,0.0,2.0,70,0.00,,,0.54,Weather View 32 v70,2013-03-09 23:56:00,
2013-03-09 19:01:00,31.0,22.7,30.29,SE,135,0.0,2.0,71,0.00,,,0.54,Weather View 32 v70,2013-03-10 00:01:00,
2013-03-09 19:06:00,31.0,23.4,30.29,SE,135,0.0,2.0,73,0.00,,,0.54,Weather View 32 v70,2013-03-10 00:06:00,
2013-03-09 19:11:00,31.0,23.4,30.29,SE,135,0.0,2.0,73,0.00,,,0.54,Weather View 32 v70,2013-03-10 00:11:00,
2013-03-09 19:16:00,30.0,22.7,30.29,SE,135,0.0,2.0,74,0.00,,,0.54,Weather View 32 v70,2013-03-10 00:16:00,
2013-03-09 19:21:00,30.0,22.1,30.29,SE,135,0.0,1.0,72,0.00,,,0.54,Weather View 32 v70,2013-03-10 00:21:00,
2013-03-09 19:26:00,29.0,19.8,30.29,SE,135,0.0,1.0,68,0.00,,,0.54,Weather View 32 v70,2013-03-10 00:26:00,
2013-03-09 19:31:00,29.0,18.0,30.29,SE,135,0.0,1.0,63,0.00,,,0.54,Weather View 32 v70,2013-03-10 00:31:00,
2013-03-09 19:36:00,29.0,19.4,30.29,SE,135,0.0,0.0,67,0.00,,,0.54,Weather View 32 v70,2013-03-10 00:36:00,
2013-03-09 19:41:00,28.0,17.8,30.29,SE,135,0.0,0.0,65,0.00,,,0.54,Weather View 32 v70,2013-03-10 00:41:00,
2013-03-09 19:46:00,28.0,18.5,30.29,SE,135,0.0,0.0,67,0.00,,,0.54,Weather View 32 v70,2013-03-10 00:46:00,
2013-03-09 19:51:00,28.0,18.5,30.29,SE,135,0.0,0.0,67,0.00,,,0.54,Weather View 32 v70,2013-03-10 00:51:00,
2013-03-09 19:56:00,27.0,17.5,30.29,SE,135,0.0,0.0,67,0.00,,,0.54,Weather View 32 v70,2013-03-10 00:56:00,
2013-03-09 20:01:00,27.0,17.5,30.29,SE,135,0.0,0.0,67,0.00,,,0.54,Weather View 32 v70,2013-03-10 01:01:00,
2013-03-09 20:06:00,27.0,13.8,30.30,SE,135,0.0,0.0,57,0.00,,,0.54,Weather View 32 v70,2013-03-10 01:06:00,
2013-03-09 20:11:00,27.0,11.3,30.30,SE,135,0.0,0.0,51,0.00,,,0.54,Weather View 32 v70,2013-03-10 01:11:00,
2013-03-09 20:16:00,27.0,9.9,30.30,SE,135,0.0,0.0,48,0.00,,,0.54,Weather View 32 v70,2013-03-10 01:16:00,
2013-03-09 20:21:00,27.0,8.5,30.30,SE,135,0.0,0.0,45,0.00,,,0.54,Weather View 32 v70,2013-03-10 01:21:00,
2013-03-09 20:26:00,27.0,9.9,30.30,SE,135,0.0,0.0,48,0.00,,,0.54,Weather View 32 v70,2013-03-10 01:26:00,
2013-03-09 20:31:00,26.0,9.9,30.30,SE,135,0.0,0.0,50,0.00,,,0.54,Weather View 32 v70,2013-03-10 01:31:00,
2013-03-09 20:37:00,26.0,9.9,30.30,SE,135,0.0,0.0,50,0.00,,,0.54,Weather View 32 v70,2013-03-10 01:37:00,
2013-03-09 20:42:00,26.0,9.9,30.31,SE,135,0.0,0.0,50,0.00,,,0.54,Weather View 32 v70,2013-03-10 01:42:00,
2013-03-09 20:47:00,26.0,9.4,30.32,SE,135,0.0,0.0,49,0.00,,,0.54,Weather View 32 v70,2013-03-10 01:47:00,
2013-03-09 20:52:00,26.0,9.0,30.32,SE,135,0.0,0.0,48,0.00,,,0.54,Weather View 32 v70,2013-03-10 01:52:00,
2013-03-09 20:57:00,26.0,7.6,30.32,SE,135,0.0,0.0,45,0.00,,,0.54,Weather View 32 v70,2013-03-10 01:57:00,
2013-03-09 21:02:00,25.0,5.6,30.32,SE,135,0.0,0.0,43,0.00,,,0.54,Weather View 32 v70,2013-03-10 02:02:00,
2013-03-09 21:07:00,25.0,5.6,30.32,SE,135,0.0,0.0,43,0.00,,,0.54,Weather View 32 v70,2013-03-10 02:07:00,
2013-03-09 21:12:00,25.0,3.5,30.32,SE,135,0.0,0.0,39,0.00,,,0.54,Weather View 32 v70,2013-03-10 02:12:00,
2013-03-09 21:17:00,26.0,-2.7,30.32,SE,135,0.0,0.0,28,0.00,,,0.54,Weather View 32 v70,2013-03-10 02:17:00,
2013-03-09 21:22:00,26.0,-5.9,30.32,SE,135,0.0,0.0,24,0.00,,,0.54,Weather View 32 v70,2013-03-10 02:22:00,
2013-03-09 21:27:00,25.0,-5.1,30.32,SE,135,0.0,0.0,26,0.00,,,0.54,Weather View 32 v70,2013-03-10 02:27:00,
2013-03-09 21:32:00,25.0,-2.1,30.32,SE,135,0.0,0.0,30,0.00,,,0.54,Weather View 32 v70,2013-03-10 02:32:00,
2013-03-09 21:37:00,25.0,-2.8,30.32,SE,135,0.0,0.0,29,0.00,,,0.54,Weather View 32 v70,2013-03-10 02:37:00,
2013-03-09 21:42:00,25.0,-5.1,30.32,SE,135,0.0,0.0,26,0.00,,,0.54,Weather View 32 v70,2013-03-10 02:42:00,
2013-03-09 21:47:00,25.0,-4.3,30.32,SE,135,0.0,0.0,27,0.00,,,0.54,Weather View 32 v70,2013-03-10 02:47:00,
2013-03-09 21:52:00,24.0,-3.7,30.32,SE,135,0.0,0.0,29,0.00,,,0.54,Weather View 32 v70,2013-03-10 02:52:00,
2013-03-09 21:57:00,24.0,-1.6,30.31,SE,135,0.0,0.0,32,0.00,,,0.54,Weather View 32 v70,2013-03-10 02:57:00,
2013-03-09 22:02:00,24.0,-3.0,30.31,SE,135,0.0,0.0,30,0.00,,,0.54,Weather View 32 v70,2013-03-10 03:02:00,
2013-03-09 22:07:00,24.0,-5.2,30.30,SE,135,0.0,0.0,27,0.00,,,0.54,Weather View 32 v70,2013-03-10 03:07:00,
2013-03-09 22:12:00,24.0,-4.4,30.30,SE,135,0.0,0.0,28,0.00,,,0.54,Weather View 32 v70,2013-03-10 03:12:00,
2013-03-09 22:17:00,24.0,-3.0,30.30,SE,135,0.0,0.0,30,0.00,,,0.54,Weather View 32 v70,2013-03-10 03:17:00,
2013-03-09 22:22:00,23.0,-1.8,30.30,SE,135,0.0,0.0,33,0.00,,,0.54,Weather View 32 v70,2013-03-10 03:22:00,
2013-03-09 22:27:00,23.0,-6.0,30.30,SE,135,0.0,0.0,27,0.00,,,0.54,Weather View 32 v70,2013-03-10 03:27:00,
2013-03-09 22:32:00,23.0,-7.6,30.30,SE,135,0.0,0.0,25,0.00,,,0.54,Weather View 32 v70,2013-03-10 03:32:00,
2013-03-09 22:37:00,23.0,-6.8,30.31,SE,135,0.0,0.0,26,0.00,,,0.54,Weather View 32 v70,2013-03-10 03:37:00,
2013-03-09 22:42:00,23.0,-4.5,30.31,SE,135,0.0,0.0,29,0.00,,,0.54,Weather View 32 v70,2013-03-10 03:42:00,
2013-03-09 22:47:00,23.0,-3.8,30.30,SE,135,0.0,0.0,30,0.00,,,0.54,Weather View 32 v70,2013-03-10 03:47:00,
2013-03-09 22:52:00,22.0,-3.4,30.30,SE,135,0.0,0.0,32,0.00,,,0.54,Weather View 32 v70,2013-03-10 03:52:00,
2013-03-09 22:57:00,22.0,-3.4,30.30,SE,135,0.0,0.0,32,0.00,,,0.54,Weather View 32 v70,2013-03-10 03:57:00,
2013-03-09 23:02:00,22.0,-2.1,30.31,SE,135,0.0,0.0,34,0.00,,,0.54,Weather View 32 v70,2013-03-10 04:02:00,
2013-03-09 23:07:00,21.0,-3.0,30.30,SE,135,0.0,0.0,34,0.00,,,0.54,Weather View 32 v70,2013-03-10 04:07:00,
2013-03-09 23:12:00,21.0,-3.6,30.31,SE,135,0.0,0.0,33,0.00,,,0.54,Weather View 32 v70,2013-03-10 04:12:00,
2013-03-09 23:17:00,21.0,-4.9,30.31,SE,135,0.0,0.0,31,0.00,,,0.54,Weather View 32 v70,2013-03-10 04:17:00,
2013-03-09 23:22:00,21.0,-4.2,30.31,SE,135,0.0,0.0,32,0.00,,,0.54,Weather View 32 v70,2013-03-10 04:22:00,
2013-03-09 23:27:00,21.0,-3.6,30.31,SE,135,0.0,0.0,33,0.00,,,0.54,Weather View 32 v70,2013-03-10 04:27:00,
2013-03-09 23:33:00,21.0,-2.4,30.31,SE,135,0.0,0.0,35,0.00,,,0.54,Weather View 32 v70,2013-03-10 04:33:00,
2013-03-09 23:38:00,21.0,-2.4,30.31,SE,135,0.0,0.0,35,0.00,,,0.54,Weather View 32 v70,2013-03-10 04:38:00,
2013-03-09 23:43:00,21.0,-2.4,30.32,SE,135,0.0,0.0,35,0.00,,,0.54,Weather View 32 v70,2013-03-10 04:43:00,
2013-03-09 23:48:00,21.0,-4.2,30.33,SE,135,0.0,0.0,32,0.00,,,0.54,Weather View 32 v70,2013-03-10 04:48:00,
2013-03-09 23:53:00,21.0,-4.9,30.32,SE,135,0.0,0.0,31,0.00,,,0.54,Weather View 32 v70,2013-03-10 04:53:00,
2013-03-09 23:58:00,21.0,-4.2,30.32,SE,135,0.0,0.0,32,0.00,,,0.54,Weather View 32 v70,2013-03-10 04:58:00,